TimeCST,TemperatureF,Dew PointF,Humidity,Sea Level PressureIn,VisibilityMPH,Wind Direction,Wind SpeedMPH,Gust SpeedMPH,PrecipitationIn,Events,Conditions,WindDirDegrees,DateUTC
12:55 AM,48.7,44.4,85,30.25,10.0,Variable,6.9,-,N/A,,Partly Cloudy,0,2013-01-07 06:55:00
1:55 AM,48.2,43.7,84,30.25,10.0,NNE,9.2,-,N/A,,Clear,30,2013-01-07 07:55:00
2:55 AM,47.7,41.9,80,30.24,10.0,NE,9.2,17.3,N/A,,Mostly Cloudy,40,2013-01-07 08:55:00
3:55 AM,46.8,41.0,80,30.23,10.0,NE,11.5,18.4,N/A,,Scattered Clouds,40,2013-01-07 09:55:00
4:55 AM,46.0,40.3,80,30.25,10.0,NE,10.4,17.3,N/A,,Mostly Cloudy,50,2013-01-07 10:55:00
5:55 AM,45.7,40.5,82,30.25,10.0,NE,8.1,-,N/A,,Overcast,50,2013-01-07 11:55:00
6:55 AM,45.3,40.3,83,30.27,10.0,Variable,6.9,-,N/A,,Mostly Cloudy,0,2013-01-07 12:55:00
7:55 AM,46.4,40.5,80,30.30,10.0,NE,5.8,-,N/A,,Mostly Cloudy,50,2013-01-07 13:55:00
8:55 AM,48.0,40.3,75,30.32,10.0,Variable,6.9,-,N/A,,Overcast,0,2013-01-07 14:55:00
9:55 AM,51.3,40.3,66,30.30,10.0,ENE,11.5,19.6,N/A,,Partly Cloudy,70,2013-01-07 15:55:00
10:55 AM,55.6,41.2,58,30.28,10.0,East,11.5,-,N/A,,Scattered Clouds,80,2013-01-07 16:55:00
11:55 AM,58.1,42.6,56,30.26,10.0,NE,8.1,-,N/A,,Mostly Cloudy,40,2013-01-07 17:55:00
12:55 PM,57.9,43.0,58,30.24,10.0,East,6.9,-,N/A,,Mostly Cloudy,90,2013-01-07 18:55:00
1:55 PM,58.5,43.3,57,30.22,10.0,ENE,8.1,-,N/A,,Overcast,70,2013-01-07 19:55:00
2:55 PM,58.6,44.2,59,30.24,10.0,NE,4.6,-,N/A,,Overcast,50,2013-01-07 20:55:00
3:55 PM,58.3,43.7,58,30.24,10.0,ENE,4.6,-,N/A,,Overcast,60,2013-01-07 21:55:00
4:55 PM,56.1,42.8,61,30.24,10.0,NE,5.8,-,N/A,,Overcast,50,2013-01-07 22:55:00
5:55 PM,55.0,45.0,69,30.25,10.0,ENE,3.5,-,N/A,,Overcast,70,2013-01-07 23:55:00
6:55 PM,54.7,43.3,66,30.26,10.0,ENE,5.8,-,N/A,,Overcast,60,2013-01-08 00:55:00
7:55 PM,54.0,43.7,68,30.26,10.0,ENE,8.1,-,N/A,,Overcast,70,2013-01-08 01:55:00
8:55 PM,52.9,43.7,71,30.25,10.0,ENE,8.1,-,N/A,,Mostly Cloudy,60,2013-01-08 02:55:00
9:55 PM,52.0,45.1,77,30.24,10.0,ENE,9.2,-,N/A,,Scattered Clouds,70,2013-01-08 03:55:00
10:55 PM,52.0,46.2,81,30.23,10.0,East,5.8,-,N/A,,Mostly Cloudy,80,2013-01-08 04:55:00
11:55 PM,52.0,46.8,82,30.21,10.0,ENE,9.2,-,N/A,,Overcast,70,2013-01-08 05:55:00